This is the latest recevied weather packets stored in our database for station/object KC9DNQ-3. If no packets are shown the sender has not sent any weather packets the latest 10 day(s).
| Time | Temp. | Humidity | Pressure | Rain* | Wind** | Luminosity | Snow |
|---|---|---|---|---|---|---|---|
| 1777908908 | 22.22° C | 56% | 1001.6 hPa | 0 mm | - | 740 W/m² | - |
| 1777908607 | 21.67° C | 54% | 1001.6 hPa | 0 mm | - | 726 W/m² | - |
| 1777908307 | 21.67° C | 56% | 1001.7 hPa | 0 mm | - | 714 W/m² | - |
| 1777908009 | 21.67° C | 56% | 1001.7 hPa | 0 mm | - | 705 W/m² | - |
| 1777907707 | 21.11° C | 57% | 1001.7 hPa | 0 mm | - | 689 W/m² | - |
| 1777907407 | 21.11° C | 59% | 1002 hPa | 0 mm | - | 675 W/m² | - |
| 1777907108 | 20.56° C | 59% | 1002 hPa | 0 mm | - | 452 W/m² | - |
| 1777906811 | 20.56° C | 59% | 1002 hPa | 0 mm | - | 86 W/m² | - |
| 1777906509 | 20.56° C | 59% | 1002 hPa | 0 mm | - | 396 W/m² | - |
| 1777906208 | 20.56° C | 58% | 1002 hPa | 0 mm | - | 165 W/m² | - |
| 1777905907 | 20° C | 58% | 1002 hPa | 0 mm | - | 90 W/m² | - |
| 1777905607 | 20° C | 57% | 1002.3 hPa | 0 mm | - | 323 W/m² | - |
| 1777905309 | 20° C | 55% | 1002.3 hPa | 0 mm | - | 508 W/m² | - |
| 1777905008 | 20° C | 56% | 1002.3 hPa | 0 mm | - | 445 W/m² | - |
| 1777904707 | 20° C | 56% | 1002.3 hPa | 0 mm | - | 373 W/m² | - |
| 1777904407 | 20° C | 57% | 1002.4 hPa | 0 mm | - | 438 W/m² | - |
| 1777904107 | 20° C | 57% | 1002.4 hPa | 0 mm | - | 420 W/m² | - |
| 1777903808 | 19.44° C | 58% | 1002.5 hPa | 0 mm | - | 406 W/m² | - |
| 1777903508 | 19.44° C | 61% | 1002.5 hPa | 0 mm | - | 397 W/m² | - |
| 1777903208 | 18.89° C | 63% | 1002.5 hPa | 0 mm | - | 388 W/m² | - |
| 1777902907 | 18.33° C | 64% | 1002.9 hPa | 0 mm | - | 387 W/m² | - |
| 1777902608 | 18.33° C | 63% | 1002.9 hPa | 0 mm | - | 381 W/m² | - |
| 1777902308 | 17.78° C | 64% | 1002.9 hPa | 0 mm | - | 378 W/m² | - |
| 1777902008 | 17.78° C | 67% | 1002.9 hPa | 0 mm | - | 374 W/m² | - |
| 1777901707 | 17.22° C | 67% | 1003.2 hPa | 0 mm | - | 369 W/m² | - |
* Rain latest hour (hover to see other rain measurements)
** Current wind speed in m/s (hover to see current wind gust speed)